Regional Weather Roundup
Issued by NWS State College, PA

Home | Current Version | Previous Version | Text Only | Print | Product List | Glossary On
Versions: 1 2 3 4 5 6 7 8 9 10 11 12 13 14 15 16 17 18 19 20 21 22 23 24 25 26 27 28 29 30 31 32 33 34 35 36 37 38 39 40 41 42 43 44 45 46 47 48 49 50
000
ASUS41 KCTP 191710
RWRCTP

REGIONAL WEATHER ROUNDUP
NATIONAL WEATHER SERVICE STATE COLLEGE PA
100 PM EDT THU OCT 19 2017

Note: "fair" indicates few or no clouds below 12,000 feet with no
significant weather and/or obstructions to visibility.

* = STATION THAT DOES NOT REPORT PRECIPITATION /E.G. RAIN...SNOW...ETC/
    THUNDER OR FOG.

PAZ002>004-007>009-013>016-020>023-029>032-191800-
WESTERN PENNSYLVANIA

CITY           SKY/WX    TMP DP  RH WIND       PRES   REMARKS
ERIE           SUNNY     68  48  48 SW12G21   30.11S
MEADVILLE      SUNNY     65  49  56 SW13      30.15F
FRANKLIN*      SUNNY     65  48  54 SW15      30.17F
NEW CASTLE     FAIR      67  49  52 SW10      30.19F
BEAVER COUNTY  SUNNY     68  48  49 SW9       30.20F
BUTLER*        SUNNY     65  47  52 SW14G20   30.20F
PITTSBURGH INT MOSUNNY   66  46  48 SW9G18    30.21F
PITTSBURGH     SUNNY     66  43  43 SW10      30.21F
INDIANA*       SUNNY     64  46  52 W15       30.24F
LATROBE        NOT AVBL
WASHINGTON CO* SUNNY     66  46  48 SW10G22   30.25F
$$

PAZ004>006-010>012-017>019-024>028-033>037-041-042-045-046-049>053-191800-
CENTRAL PENNSYLVANIA

CITY           SKY/WX    TMP DP  RH WIND       PRES   REMARKS
BRADFORD       SUNNY     63  43  48 SW14G23   30.15F
DUBOIS         SUNNY     65  43  44 SW18G25   30.18F
CLEARFIELD     SUNNY     66  42  41 SW13G24   30.18F
JOHNSTOWN      SUNNY     63  40  42 W14       30.22F
ALTOONA        SUNNY     69  43  38 SW8       30.21F
STATE COLLEGE  SUNNY     66  45  45 SW13      30.18F
WILLIAMSPORT   SUNNY     62  48  60 VRB3      30.16F
SELINSGROVE    SUNNY     66  49  54 S8        30.19F
FT INDIANTOWN  SUNNY     65  47  52 SW6       30.20F
CAPITAL CITY   SUNNY     67  46  47 NE5       30.20F
HARRISBURG     SUNNY     65  50  58 CALM      30.20F
YORK           SUNNY     68  46  45 S5        30.21F
$$

PAZ038>040-043-044-047-048-054-055-060>062-067>071-191800-
EASTERN PENNSYLVANIA

CITY           SKY/WX    TMP DP  RH WIND       PRES   REMARKS
SCRANTON       SUNNY     68  42  38 SW14G22   30.17F
MOUNT POCONO   SUNNY     64  42  44 W13       30.19F
ALLENTOWN      SUNNY     69  44  40 S10G17    30.20F
QUAKERTOWN*    SUNNY     68  45  42 SW10      30.21F
READING        SUNNY     67  47  48 SW12      30.20F
LANCASTER      SUNNY     68  47  46 W9        30.21F
COATESVILLE    SUNNY     68  45  42 SW8       30.24F
POTTSTOWN      SUNNY     67  40  37 SW8G17    30.22F
BLUE BELL      SUNNY     68  43  40 SW6       30.22F
DOYLESTOWN     SUNNY     68  38  33 SW12G18   30.20F
WILLOW GROVE   NOT AVBL
NORTH PHILA    SUNNY     69  42  37 SW14      30.23F
PHILADELPHIA   MOSUNNY   68  43  40 SW13      30.23F
$$




USA.gov is the U.S. government's official web portal to all federal, state and local government web resources and services.